GPS BIIR-13 (PRN 02)

Last updated on Aug. 13, 2020, 5:30 a.m. UTC

1 28474U 04045A   20225.33994597 -.00000046  00000-0  00000-0 0  9999
2 28474  55.0082  50.6134 0199602 267.6440 272.0572  2.00554334115617
UTC
Height (km)
Latitude
Longitude
Inclination
Orbital Period
UTC large
Height (km)
Speed (km/s)
/
Latitude / Longitude
Inclination (degrees)
Orbital Period (minutes)
Azimuth
Elevation
Range (km)
Doppler Factor
iOS Compass Heading
iOS Angle

Next 30 passes for location: Hong Kong

Rise time Rise Azimuth (degrees) Set time Set Azimuth (degrees) Duration Max altitude (degrees)

No matching passes for this satellites